STARLINK-5174, 54067

Orbit data source: Space-Track

STARLINK-5174, 54067 is a payload satellite owned by SpaceX/Seattle (US) in LEO that was launched on Thu, 20 Oct 2022 UTC via an FALCON 9 launch vehicle from the Air Force Eastern Test Range (AFETR). Payload-class satellites include a variety of spacecraft equipped with specific instruments for various scientific and technological missions. These include communications satellites like Starlink; space stations such as the ISS; scientific satellites like the Hubble; Earth observation satellites from companies like Planet Labs, Umbra, and HawkEye 360; GPS; miniature CubeSats for education and research; and military/defense satellites.

Loading next visibility...
Identifier
54067, 2022-136S
Orbit
LEO
Country
Flag of USUS
Related business
Manufacturer
SpaceX/Seattle
Mission
Operational Commercial Communications
Bus & Motor
STARLINK, Unknown motor
Mass
305 kg wet, ~290 kg dry
Launch date (UTC)
2022-10-20 (4 years ago)
Launch vehicle
FALCON 9
Launch site
Air Force Eastern Test Range (AFETR)
Object type
Payload
Rocket body
Debris
Shape & HBR
Box + 1 Pan, 10.1 m
Radar Cross Section
13.562 m², Large (>1 m²)

Expand to show TLE details & history
Last TLE update: 2 days ago

TLE from 2 days ago
0 STARLINK-5174
1 54067U 22136S   26171.47094785  .00000056  00000-0  21596-4 0  9995
2 54067  53.1595 242.3746 0001009  89.5984 270.5123 15.08833698202367
Epoch: 2026-06-20T11:18Z
TLE epoch observation values (Epoch: 2026-06-20T11:18:09.894Z)
Latitude
-0.00001°
Longitude
164.14827°
Altitude
540.648 km
Speed
7.593 km/s
True Right ascension
16h 09m 29s
True Declination
0° 00' 00"
Sunlit
Object was in full shadow at epoch
Visualization orbit readout
Latitude
Unknown
Longitude
Unknown
Altitude
Unknown
Speed
Unknown
Apparent Right ascension
Unknown
Apparent Declination
Unknown
Sunlit
N/A
Visualization observer readout
Local Sidereal Time
21:38:07
Azimuth
Unknown
Elevation
Unknown
Doppler factor
Unknown
Orbital elements
Apogee altitude
540.715 km
Perigee altitude
539.319 km
Semi-major axis
6,918.154 km
Eccentricity
0.0001
Inclination
53.1595°
RAAN
242.3746°
Arg. of periapsis
89.5984°
True anomaly
270.50074°
Mean anomaly
270.5123°
Eccentric anomaly
270.50652°
Mean motion
3.77188 °/min
Orbital period
95.44 mins
BSTAR
0.000021596
Loading maneuver chart data...
Computing Atmospheric mass density...
Loading historical data...
Loading historical data...
Loading historical data...
Loading historical data...
Loading historical data...
Loading historical data...
Loading historical data...

Documentation

Showing up to 5 results
|